PCSAT (NO-44) (26931 NORAD) Tracking and Keplerian Element Data
This shows tracking and keplerian element data for the satellite.
Feedback or suggestion? Click here.
Element | Value |
Catalog | 26931 |
Name | PCSAT (NO-44) |
Epoch Orbit | 808 |
Epoch Day | 20.52583757 |
Epoch Year | 2021 |
RAAN | 302.2039 |
Inclination | 67.0523 |
Eccentricity | 0.0007406 |
Argument of Perigee | 271.6882 |
Mean Anonmoly | 88.3371 |
Mean Motion | 14.30603169 |
Decay Rate | -4.8E-07 |
L1 | 1 26931U 01043C 21020.52583757 -.00000048 00000-0 13217-4 0 9997 |
L2 | 2 26931 67.0523 302.2039 0007406 271.6882 88.3371 14.30603169 8085 |
Live tracking and technical data element details for PCSAT (NO-44) (NORAD 26931). PCSAT (NO-44) can be tracked NOW for your location showing map with azimuth and elevation plus other details from your city location.
Track the satellite on the map from your city or location and see movement details for azimuth, elevation, latitude, longitude, range, height, and movement on the map or in text.
IsCatalogInMostPopularTable: catalog: 26931, numindb: 1057
Update: records affected: 1
GetName: 26931 PCSAT (NO-44)
Hit Count: updated at: Sat, 23 Jan 2021 04:30:31 GMT